CW2989 Weather Reports


time (UTC)temp
C
wind
direction
speed
KPH
gust
KPH
rain 1hr
cm
rain 24hr
cm
rain mn
cm
humidity
%
barometer
mb
20260506222020 15 197 4.8 12.9 0.00 0.00 0.00 89 995.0
20260506215825 15 219 3.2 14.5 0.00 0.00 0.00 89 995.3
20260506214838 15 174 3.2 17.7 0.00 0.00 0.00 89 995.3
20260506213842 15 240 4.8 17.7 0.00 0.00 0.00 89 995.4
20260506212822 15 215 1.6 14.5 0.00 0.00 0.00 90 995.4
20260506211802 15 263 3.2 14.5 0.00 0.00 0.00 89 995.4
20260506210819 15 211 4.8 14.5 0.00 0.00 0.00 89 995.5
20260506205805 15 214 4.8 24.1 0.00 0.00 0.00 89 995.8
20260506204756 15 189 4.8 24.1 0.00 0.00 0.00 89 995.8
20260506202640 15 230 3.2 17.7 0.00 0.00 0.00 89 995.8
20260506201627 15 246 4.8 17.7 0.00 0.00 0.00 88 995.8
20260506200607 15 250 4.8 20.9 0.00 0.00 0.00 89 995.7
20260506195608 15 271 4.8 20.9 0.00 0.00 0.00 88 995.5
20260506194546 15 222 4.8 19.3 0.00 0.00 0.00 88 995.5
20260506193548 15 213 4.8 19.3 0.00 0.00 0.00 88 995.3
20260506192523 15 216 4.8 17.7 0.00 0.00 0.00 88 995.5
20260506191522 16 248 4.8 19.3 0.00 0.00 0.00 88 995.5
20260506190511 16 215 6.4 19.3 0.00 0.00 0.00 89 995.7
20260506185524 16 200 6.4 17.7 0.00 0.00 0.00 88 995.4
20260506184519 16 254 4.8 19.3 0.00 0.00 0.00 89 995.4
20260506183529 16 227 4.8 19.3 0.00 0.00 0.00 89 995.3
20260506182532 17 197 4.8 20.9 0.00 0.00 0.00 88 995.2
20260506181552 18 201 6.4 20.9 0.00 0.00 0.00 86 995.2
20260506180610 20 197 4.8 14.5 0.00 0.00 0.00 84 995.1
20260506175633 20 198 4.8 12.9 0.00 0.00 0.00 85 994.7
20260506174648 20 175 3.2 9.7 0.00 0.00 0.00 83 994.7
20260506173707 20 323 3.2 9.7 0.00 0.00 0.00 85 994.6
20260506172712 20 252 1.6 8.0 0.00 0.00 0.00 88 994.2
20260506171726 19 304 1.6 8.0 0.00 0.00 0.00 89 994.2
20260506170717 18 278 1.6 9.7 0.00 0.00 0.00 92 994.3
20260506165739 17 288 3.2 14.5 0.00 0.00 0.00 92 994.2
20260506164741 17 217 3.2 14.5 0.00 0.00 0.00 93 994.2
20260506163721 16 51 1.6 9.7 0.00 0.00 0.00 96 994.7
20260506162742 16 281 1.6 8.0 0.00 0.00 0.00 96 995.7
20260506161734 15 271 0.0 8.0 0.00 0.00 0.00 96 995.7
20260506160744 14 174 3.2 12.9 0.00 0.00 0.00 95 995.3
20260506153446 15 340 4.8 16.1 0.00 0.00 0.00 94 996.0
20260506152434 16 234 4.8 20.9 0.00 0.00 0.00 94 995.6
20260506151458 16 171 6.4 20.9 0.00 0.00 0.00 94 995.6
20260506150431 17 171 4.8 16.1 0.00 0.00 0.00 95 995.2
20260506145429 17 284 6.4 17.7 0.00 0.00 0.00 95 994.3
20260506144409 17 300 6.4 24.1 0.00 0.00 0.00 94 994.3
20260506143433 17 264 8.0 24.1 0.00 0.00 0.00 94 994.0
20260506140211 18 254 4.8 12.9 0.00 0.00 0.00 94 993.0
20260506135154 20 261 4.8 17.7 0.00 0.00 0.00 94 992.9
20260506133108 22 282 0.0 3.2 0.00 0.00 0.00 97 992.4
20260506132053 22 281 0.0 3.2 0.00 0.00 0.00 97 992.4
20260506125959 22 292 0.0 1.6 0.00 0.00 0.00 97 991.9
20260506125009 22 293 0.0 1.6 0.00 0.00 0.00 96 991.9
20260506123938 22 293 0.0 0.0 0.00 0.00 0.00 96 991.9
20260506122925 22 24 0.0 0.0 0.00 0.00 0.00 96 991.9
20260506120752 22 24 0.0 0.0 0.00 0.00 0.00 95 991.3
20260506115805 22 24 0.0 3.2 0.00 0.00 0.00 95 991.3
20260506114802 22 24 0.0 1.6 0.00 0.00 0.00 95 991.3
20260506113750 22 24 0.0 0.0 0.00 0.00 0.00 95 991.3
20260506112750 22 22 0.0 6.4 0.00 0.00 0.00 95 991.7
20260506111748 23 40 0.0 1.6 0.00 0.00 0.00 95 991.7
20260506103313 23 40 0.0 0.0 0.00 0.00 0.00 95 991.5
20260506102314 23 40 0.0 0.0 0.00 0.00 0.00 94 991.3
20260506101318 23 41 0.0 0.0 0.00 0.00 0.00 94 991.1
20260506100245 23 41 0.0 0.0 0.00 0.00 0.00 94 991.1
20260506094127 23 40 0.0 3.2 0.00 0.00 0.00 93 990.8
20260506093117 23 40 0.0 3.2 0.00 0.00 0.00 93 990.8
20260506092053 23 39 1.6 4.8 0.00 0.00 0.00 93 990.7
20260506091110 23 39 1.6 4.8 0.00 0.00 0.00 93 990.4
20260506090116 23 37 1.6 11.3 0.00 0.00 0.00 93 990.4
20260506085054 23 42 1.6 11.3 0.00 0.00 0.00 93 990.3
20260506084025 23 30 1.6 8.0 0.00 0.00 0.00 93 990.4
20260506082958 23 30 1.6 9.7 0.00 0.00 0.00 93 990.4
20260506082006 23 48 1.6 12.9 0.00 0.00 0.00 92 990.3
20260506072817 23 84 1.6 14.5 0.00 0.00 0.00 92 990.8
20260506071800 23 20 3.2 14.5 0.00 0.00 0.00 92 990.8
20260506070821 23 38 3.2 14.5 0.00 0.00 0.00 92 990.8
20260506061816 23 65 3.2 17.7 0.00 0.00 0.00 92 990.4
20260506060822 23 59 3.2 17.7 0.00 0.00 0.00 92 990.3
20260506050614 23 32 3.2 16.1 0.00 0.00 0.00 92 990.8
20260506044624 23 40 3.2 12.9 0.00 0.00 0.00 92 990.4
20260506043607 23 40 1.6 14.5 0.00 0.00 0.00 91 990.7
20260506041450 23 34 1.6 9.7 0.00 0.00 0.00 90 990.3
20260506040447 24 29 3.2 8.0 0.00 0.00 0.00 90 990.3
20260506035424 24 37 1.6 8.0 0.00 0.00 0.00 90 990.3
20260506032142 24 35 1.6 6.4 0.00 0.00 0.00 89 990.0
20260506031158 24 44 1.6 4.8 0.00 0.00 0.00 88 989.8
20260506030204 24 36 0.0 3.2 0.00 0.00 0.00 88 989.8
20260506024007 25 37 0.0 0.0 0.00 0.00 0.00 86 989.2
20260506023005 25 38 0.0 1.6 0.00 0.00 0.00 86 989.2
20260506021933 25 38 0.0 3.2 0.00 0.00 0.00 85 989.0
20260506015730 25 36 0.0 3.2 0.00 0.00 0.00 84 988.7
20260506014706 25 37 1.6 9.7 0.00 0.00 0.00 83 988.7
20260506013704 25 31 1.6 9.7 0.00 0.00 0.00 83 988.4
20260506012708 26 27 1.6 8.0 0.00 0.00 0.00 82 988.5
20260506011716 26 26 1.6 6.4 0.00 0.00 0.00 81 988.5
20260506010741 26 27 1.6 9.7 0.00 0.00 0.00 81 988.3
20260506005752 26 34 1.6 9.7 0.00 0.00 0.00 80 988.3
20260506004753 26 34 3.2 8.0 0.00 0.00 0.00 79 988.3
20260506003723 27 17 3.2 8.0 0.00 0.00 0.00 79 988.5
20260506002741 27 51 3.2 9.7 0.00 0.00 0.00 78 988.5
20260506001731 27 22 3.2 14.5 0.00 0.00 0.00 78 988.5
20260506000709 27 47 3.2 14.5 0.00 0.00 0.00 79 988.4
20260505235715 27 30 3.2 9.7 0.00 0.00 0.00 78 988.5
20260505234648 27 46 3.2 12.9 0.00 0.00 0.00 77 988.5
20260505233640 27 28 3.2 12.9 0.00 0.00 0.00 77 988.2
20260505232618 27 39 3.2 16.1 0.00 0.00 0.00 77 988.1
20260505231609 27 41 4.8 16.1 0.00 0.00 0.00 76 988.1
20260505230625 28 30 3.2 14.5 0.00 0.00 0.00 76 988.0
20260505224507 28 27 3.2 12.9 0.00 0.00 0.00 75 987.8